Voltar ao catálogo

FREGAT DEB

LostHEO
NORAD 48834·DEBRIS·🇷🇺 Russia

Lançado Jul 18, 2011 de Baikonur Cosmodrome

Loading…

Próximas Passagens (próximas 24 horas)

TLE

ObsoletoSource: Space-Track

Época: Jun 9, 2021, 01:17 UTC

1 48834U 11037NY  21160.05362943  .00102271  00000-0  13933-1 0  9994
2 48834  51.5203  33.7608 3431575 120.4880 277.8948  8.39659702  5743

Acompanhe FREGAT DEB em tempo real com AllMySat

Download on the App Store